GFSNE_925_spd_180.txt.gz
Wind_Speed
15 14 13 13 11 13 13 13 13 7 11 13 22 20 37 44 40 32 30 35 35 34 32 31 32 31 32 32 29 27 29 30 32 36 36 45 52 55
14 15 15 12 14 12 13 13 13 14 7 22 22 32 30 38 41 34 37 33 32 32 31 32 31 33 31 30 31 32 29 31 32 35 37 50 51 58
15 15 10 13 14 14 12 16 15 14 15 24 27 26 28 31 37 46 34 34 32 30 32 33 34 36 35 33 32 32 33 35 34 32 38 40 48 53
12 13 14 12 14 10 19 13 14 18 20 24 26 29 28 28 29 33 45 33 31 31 31 34 36 36 35 36 33 31 29 32 35 34 35 41 47 51
11 12 11 12 11 17 16 17 17 20 20 24 26 27 28 29 31 30 33 42 33 30 35 34 32 30 28 28 27 28 30 28 31 32 35 41 45 53
10 12 12 14 16 17 16 18 21 21 22 21 24 25 28 28 26 30 38 35 42 37 35 27 26 28 37 35 35 36 34 34 31 24 26 37 43 49
13 13 12 12 15 15 19 21 22 21 20 22 22 23 26 29 27 31 30 39 42 39 27 22 40 35 34 35 35 32 30 31 36 38 30 29 36 44
14 14 12 13 16 17 19 20 19 21 21 21 22 23 27 30 28 30 31 29 16 20 36 45 33 35 35 35 33 34 35 36 34 35 35 31 32 36
12 13 13 14 16 20 20 21 19 18 18 22 25 27 31 31 32 33 29 31 31 40 37 40 34 34 34 35 33 35 35 38 39 34 34 33 31 31
11 12 12 14 18 22 20 18 18 18 19 25 27 28 30 32 30 30 33 34 34 33 28 22 31 34 31 37 41 39 37 30 27 29 32 35 33 32
12 14 13 14 19 20 20 18 19 21 24 26 24 26 27 27 26 29 27 27 22 30 36 23 19 40 34 38 23 21 19 30 30 27 25 31 36 31
17 15 17 16 17 20 20 17 21 24 26 27 32 32 30 28 26 22 25 25 27 16 10 18 32 25 8 17 14 29 37 35 31 29 25 26 27 31
21 21 21 20 18 18 18 18 22 26 22 23 26 27 29 29 28 29 27 27 29 29 38 32 31 33 21 27 28 31 36 34 30 36 34 31 21 27
21 19 18 18 18 16 16 19 23 26 23 23 25 27 29 32 34 36 35 33 34 38 45 36 29 33 30 24 17 30 34 34 32 35 34 31 28 25
19 16 15 16 18 20 15 18 27 27 23 22 25 27 30 33 33 34 36 33 37 40 36 31 31 35 33 31 29 33 35 32 32 37 36 34 25 22
20 20 19 22 24 24 24 25 28 28 26 20 24 29 29 32 31 30 32 36 35 42 46 31 30 31 33 33 35 33 32 20 24 34 32 31 25 26
20 23 27 28 30 32 32 27 27 28 27 26 26 29 30 30 33 31 30 31 28 32 40 44 43 34 35 37 32 34 34 33 32 33 28 28 29 28
19 23 24 23 24 25 25 25 26 27 29 26 27 28 28 29 32 35 30 28 28 34 34 35 39 39 37 31 28 31 28 31 33 32 29 25 26 25
21 22 21 23 23 23 24 22 25 26 30 24 26 28 28 30 31 32 32 30 32 33 37 36 34 27 15 17 39 32 29 33 33 27 28 28 25 24
20 20 21 22 22 23 24 23 26 29 31 27 28 28 28 29 31 32 31 31 33 36 37 37 31 28 18 21 21 52 41 37 31 23 23 25 28 24
21 23 22 22 21 23 23 27 28 29 31 27 27 28 29 30 33 31 33 35 36 32 30 34 40 46 42 39 21 22 36 35 38 34 26 19 11 10
19 21 21 22 22 23 21 25 30 30 31 28 28 28 31 31 31 33 33 35 36 35 37 42 44 42 36 26 17 20 33 36 30 38 35 24 9 4
19 20 22 22 22 22 19 28 31 31 29 28 28 29 31 34 33 32 34 35 35 38 37 40 43 39 35 32 28 21 29 26 14 18 28 18 24 17

GFSNE_925_spd_183.txt.gz
Wind_Speed
9 7 7 6 6 7 7 7 8 6 9 14 18 26 29 29 29 30 28 26 29 28 27 26 26 27 27 28 29 29 29 31 34 34 30 31 39 39
8 8 7 8 8 8 7 8 8 10 7 18 23 26 26 29 31 31 30 31 28 25 26 28 28 29 30 30 30 31 31 31 33 35 34 31 34 34
9 8 9 9 8 7 10 8 10 11 14 20 22 24 26 26 25 30 32 29 28 28 30 28 31 33 32 29 28 30 31 32 31 33 34 34 36 36
9 8 9 8 7 9 9 10 11 13 17 21 22 23 24 24 24 24 24 30 31 29 31 32 33 31 28 26 25 29 31 33 33 32 32 33 38 41
8 8 8 8 9 10 10 12 14 16 17 19 22 23 24 24 26 25 26 28 31 30 32 33 28 24 25 32 37 33 33 33 37 40 38 38 34 39
7 7 8 8 9 10 11 12 14 17 17 18 20 22 25 26 26 30 31 29 33 35 30 26 23 31 36 34 34 32 31 32 33 35 34 34 39 35
6 6 6 6 8 9 12 14 16 16 17 18 20 22 26 29 28 30 32 35 33 30 33 29 37 35 33 33 31 27 30 33 34 35 37 36 39 41
5 6 5 7 9 12 13 14 12 14 16 18 19 22 26 28 29 30 32 31 16 27 36 39 32 36 34 30 30 34 37 36 36 36 36 38 37 40
6 7 7 8 11 14 15 14 13 13 13 17 21 23 26 28 30 31 30 31 32 37 36 36 34 33 30 32 35 42 42 37 34 33 31 30 31 36
6 8 9 9 12 15 15 14 14 15 15 18 20 22 24 26 25 27 31 32 32 31 30 28 29 31 33 41 37 33 26 25 23 27 31 34 28 27
5 7 9 10 13 14 14 14 15 16 19 20 20 21 22 22 22 24 24 27 25 30 33 21 27 38 35 34 19 17 21 37 34 35 35 33 28 26
7 8 9 12 14 13 13 12 16 19 21 21 21 22 22 21 21 19 22 24 27 22 16 25 32 28 12 16 17 37 31 35 36 33 31 33 33 31
9 9 10 13 13 12 10 11 15 19 18 19 19 20 21 22 22 22 22 23 27 28 36 32 32 31 23 32 31 33 37 33 35 37 35 33 30 28
10 11 11 13 12 12 9 12 16 15 17 18 18 20 23 25 26 28 27 26 27 31 35 31 28 29 29 28 24 29 34 37 35 37 34 32 30 30
11 13 12 12 13 11 11 12 13 14 16 17 19 21 24 26 27 26 29 29 31 29 25 25 28 29 29 30 31 34 37 35 36 30 24 24 24 22
13 13 13 12 14 14 13 13 13 14 16 18 19 21 23 26 27 27 29 32 33 39 31 22 30 29 30 32 34 35 34 23 33 34 33 34 32 29
11 11 10 12 12 14 15 14 14 16 17 21 21 23 25 26 28 28 28 30 30 31 36 39 35 31 32 32 31 34 33 32 33 32 32 31 32 30
7 10 11 12 14 15 15 17 17 19 20 20 21 22 25 26 28 29 28 29 30 31 32 35 41 39 33 30 25 27 31 34 35 34 33 29 32 30
7 8 10 12 13 13 15 16 17 18 19 19 20 21 23 25 27 28 29 29 31 33 34 34 33 29 17 17 37 28 30 37 37 35 31 30 30 32
7 8 10 11 12 14 15 16 17 19 20 20 21 21 23 25 28 28 30 29 31 34 34 34 32 30 19 21 24 50 40 35 33 33 30 31 34 36
8 9 10 11 13 14 15 16 17 19 20 20 21 22 23 25 28 29 31 32 32 31 30 34 39 43 41 39 22 28 37 35 39 40 33 27 21 22
8 10 11 12 13 14 15 16 18 19 20 20 21 22 24 26 28 30 30 31 32 32 34 40 43 40 36 28 18 31 39 45 43 39 40 44 17 7
8 10 11 13 13 14 15 16 18 19 19 20 21 23 25 28 29 30 30 31 32 34 33 38 42 37 35 32 33 29 38 39 37 37 22 21 41 41

GFSNE_925_spd_186.txt.gz
Wind_Speed
6 5 5 4 4 4 5 5 5 5 8 9 17 19 21 22 22 23 23 23 23 21 22 25 28 29 27 28 29 28 28 29 31 32 32 32 32 32
5 5 4 3 3 3 5 4 4 4 5 15 19 21 23 23 22 25 24 25 22 21 23 25 25 30 30 31 30 28 27 27 29 31 33 33 33 33
4 5 5 4 3 4 4 5 8 7 9 18 20 20 21 23 25 24 25 25 24 25 26 27 29 28 30 29 27 28 27 29 35 33 35 34 34 32
4 4 4 4 5 5 5 8 8 8 12 16 20 20 20 21 21 24 22 25 28 29 32 32 30 26 25 25 26 33 35 33 34 32 33 34 35 37
5 5 6 6 5 7 8 8 10 11 11 16 19 19 20 20 23 21 22 25 24 29 32 33 26 27 30 36 34 32 32 32 32 33 33 34 34 34
6 6 5 6 7 9 9 10 12 13 13 15 17 18 19 21 23 25 26 25 28 29 30 28 22 34 34 32 32 32 30 29 28 33 36 37 37 37
5 4 4 5 6 8 8 10 12 12 13 15 16 18 20 23 24 26 28 30 28 31 32 29 34 32 32 33 31 28 30 34 36 37 38 39 38 36
4 2 1 6 6 5 6 8 9 11 13 14 17 18 21 24 24 27 29 29 20 27 33 34 31 32 32 31 31 36 38 43 41 34 33 33 35 35
3 3 3 5 6 8 9 9 9 9 11 13 19 20 23 24 26 27 27 29 30 33 33 31 32 32 30 31 37 45 40 33 28 25 27 33 34 35
4 3 3 6 7 9 11 11 11 12 11 15 18 20 21 23 23 25 29 31 29 28 28 29 32 29 32 39 39 33 27 23 27 38 38 34 35 36
2 1 1 6 9 10 10 11 12 13 15 18 20 21 21 21 21 25 24 27 25 26 27 30 28 37 38 36 25 24 24 40 37 40 40 38 35 34
1 1 7 6 9 10 9 10 13 15 20 20 20 20 19 19 19 19 23 25 27 25 20 31 31 31 19 28 18 39 34 37 41 39 38 40 38 36
2 2 3 8 8 9 8 8 12 16 16 17 18 18 19 19 19 20 22 23 28 30 31 32 33 31 27 34 32 34 39 39 39 42 40 37 34 32
1 3 5 8 7 8 6 10 12 11 13 16 16 18 20 21 21 23 24 24 27 33 35 30 32 31 31 30 27 36 38 38 37 40 39 35 32 32
2 5 8 8 8 6 9 9 10 11 14 15 17 19 20 23 24 23 23 25 28 30 28 27 30 30 31 33 33 35 38 38 37 32 29 36 34 32
6 6 8 7 9 10 10 10 10 11 14 16 19 20 21 22 23 23 26 27 28 29 30 26 28 30 31 34 36 36 36 29 36 36 37 36 35 31
5 5 6 7 8 9 10 10 11 12 15 17 18 21 22 23 24 24 26 27 27 30 32 33 33 33 32 35 33 36 37 35 34 36 37 37 35 33
3 5 7 8 9 10 11 13 13 14 16 18 19 21 22 24 25 27 26 26 28 30 32 33 35 34 34 33 27 30 35 37 35 37 39 34 34 33
5 6 7 8 10 11 12 13 16 16 17 18 20 20 22 24 25 26 27 28 28 30 33 34 32 30 16 17 45 29 27 41 41 38 35 32 33 35
6 7 8 9 10 11 13 14 16 17 17 19 20 20 21 23 26 26 27 28 30 32 33 33 31 30 21 21 25 54 40 35 36 36 37 39 40 43
7 8 8 10 10 11 13 15 16 17 19 20 20 21 22 23 25 27 29 30 31 31 30 32 35 39 39 38 25 33 43 42 39 40 41 38 32 34
8 9 9 10 11 12 14 15 17 18 18 19 20 21 22 23 25 28 29 30 31 32 34 38 40 37 35 29 22 36 42 47 48 43 43 46 35 19
9 9 10 10 11 12 14 16 17 18 18 19 21 22 23 24 26 27 29 30 31 33 34 36 39 36 34 33 34 31 40 43 42 42 40 38 42 38

GFSNE_925_spd_189.txt.gz
Wind_Speed
5 6 7 7 6 5 4 5 7 5 6 4 12 14 16 17 16 16 17 20 22 18 16 19 23 26 29 28 27 27 26 24 24 24 24 27 27 28
6 6 7 7 7 5 5 5 5 7 5 14 14 16 17 18 18 19 19 22 20 20 22 22 24 26 26 27 27 27 26 25 24 26 28 29 28 29
7 7 7 7 6 5 5 4 5 6 9 15 15 16 18 19 20 19 22 21 23 24 24 30 30 26 24 23 24 28 32 32 31 29 28 28 28 30
7 7 7 6 6 5 4 4 5 7 9 13 16 17 17 19 19 20 21 22 26 26 30 29 30 24 27 21 31 28 30 30 31 30 30 29 28 28
7 7 8 6 6 6 5 6 7 9 10 13 16 17 18 19 20 19 21 23 24 27 30 30 27 28 31 30 29 29 30 28 28 28 27 30 33 33
7 8 8 7 6 6 5 6 8 9 9 11 13 15 17 20 21 22 24 24 27 27 28 26 30 35 31 29 30 29 26 23 29 32 35 39 40 38
7 6 7 7 9 8 6 7 9 10 11 12 14 17 17 21 23 22 25 27 27 27 28 24 33 31 30 30 29 28 31 33 37 38 36 36 36 33
5 4 4 5 4 7 10 12 8 8 11 11 14 16 19 22 23 24 25 25 20 25 30 31 31 31 30 33 31 31 37 43 38 32 28 26 28 32
6 4 2 2 5 5 7 10 10 9 10 10 15 17 21 22 24 25 25 27 28 29 30 30 30 31 33 30 32 42 42 35 30 30 30 36 41 41
5 4 2 2 4 8 9 7 8 9 9 10 16 18 20 21 21 23 27 30 27 26 26 27 31 30 31 39 38 37 30 30 31 37 44 42 42 44
4 3 2 1 8 8 8 8 10 10 11 15 17 19 19 20 19 22 23 25 24 25 26 25 26 36 36 37 25 24 27 37 42 41 45 46 45 44
4 2 2 4 7 7 7 9 11 12 16 19 17 17 17 17 17 17 21 24 25 23 17 31 29 29 17 21 20 39 34 40 41 42 43 43 44 42
3 1 1 9 9 7 6 6 10 14 15 15 17 17 17 18 18 19 20 23 27 28 30 31 31 29 26 36 32 36 37 41 43 42 43 42 40 36
2 1 3 10 9 9 5 10 12 11 11 15 17 17 18 20 21 22 24 24 26 32 35 30 32 29 32 32 31 37 37 41 41 43 42 40 37 36
2 4 8 9 7 7 9 11 9 11 13 15 17 18 20 22 23 24 24 25 26 28 31 29 30 32 30 33 35 36 39 39 40 35 40 40 40 39
3 5 7 7 7 9 9 7 10 11 13 16 18 20 21 22 23 23 26 27 27 28 28 28 28 31 33 33 36 38 37 34 42 41 41 40 43 39
6 5 7 6 8 8 9 9 10 12 14 16 18 20 21 23 23 24 25 27 26 28 31 30 30 31 35 36 35 35 37 36 40 43 42 40 42 41
4 6 7 7 9 9 10 12 12 13 15 16 18 19 21 23 24 26 25 25 26 28 31 33 35 35 30 28 28 36 38 37 40 41 42 38 42 39
6 7 8 9 10 10 11 12 14 15 15 16 18 20 22 23 24 25 25 25 26 28 31 34 33 29 16 17 32 34 38 41 42 42 38 37 39 45
7 8 9 10 10 11 12 13 15 16 16 17 19 21 22 23 24 25 25 27 28 30 32 31 29 29 26 23 26 49 38 37 37 38 44 43 45 51
9 10 10 10 10 11 12 14 15 17 18 19 20 21 22 23 24 25 27 28 30 30 29 30 33 39 41 40 27 35 44 43 40 41 45 41 38 40
11 10 10 10 11 12 13 14 16 17 18 19 20 21 22 23 25 27 27 29 29 30 33 35 37 36 36 31 27 38 43 49 50 46 45 45 38 20
11 11 11 11 11 12 13 15 16 18 18 20 21 22 23 24 26 27 28 29 31 32 33 35 37 36 35 34 36 35 42 44 44 43 45 47 47 53

GFSNE_925_spd_192.txt.gz
Wind_Speed
10 12 11 9 7 4 6 5 2 1 2 12 5 12 11 11 12 16 14 18 17 16 19 21 23 27 25 23 21 19 21 22 24 24 24 24 24 26
9 9 10 9 7 5 4 5 5 4 0 11 10 9 12 11 11 14 17 17 14 16 21 20 27 24 22 21 22 22 23 26 25 25 25 24 24 26
11 9 9 8 9 5 4 5 5 6 4 5 9 11 11 12 14 14 16 15 16 20 17 26 22 22 22 20 23 25 23 25 26 26 25 25 24 24
12 11 8 8 9 5 5 6 6 5 6 9 11 12 13 13 12 17 18 16 21 18 24 24 25 20 18 27 24 22 22 24 25 22 23 28 29 29
11 11 9 11 9 6 6 8 8 7 8 9 12 12 12 14 18 15 16 20 19 23 23 25 26 23 26 25 24 25 23 22 21 24 28 33 35 35
13 13 10 11 9 7 8 9 9 9 9 9 9 12 14 18 17 19 19 19 25 25 24 25 23 29 27 25 27 26 26 25 27 29 35 35 36 34
12 10 9 11 11 10 8 8 6 6 7 9 11 13 15 18 19 20 21 25 24 23 24 29 28 28 28 28 28 27 27 30 37 38 32 28 26 28
14 9 10 8 7 9 11 8 7 6 5 6 7 11 14 17 18 21 21 22 12 15 33 28 29 29 27 30 26 27 35 39 34 30 29 30 30 32
13 13 9 9 7 7 3 6 4 5 5 4 6 12 15 18 21 21 20 21 23 29 28 30 29 31 29 25 34 39 35 29 27 30 33 37 41 38
12 11 10 8 3 3 5 4 5 6 4 2 9 14 15 19 18 21 22 24 25 24 23 23 31 25 37 37 37 28 22 25 37 37 36 39 41 41
11 12 11 5 3 3 5 4 4 3 3 7 11 12 13 15 16 18 19 19 20 23 25 17 22 39 38 34 17 13 25 41 40 40 41 41 40 41
9 8 5 2 4 3 3 4 4 5 11 16 12 11 12 14 14 14 17 18 19 13 7 24 28 28 17 16 14 40 33 39 40 43 42 42 41 40
10 7 4 0 2 3 2 2 4 10 11 9 12 14 13 13 14 15 16 18 20 20 27 27 29 27 20 35 31 36 37 41 41 44 43 41 38 36
10 8 6 2 3 4 2 4 7 6 8 10 12 14 14 15 18 20 21 20 20 25 30 29 28 28 30 32 33 39 38 40 40 43 41 38 40 42
10 7 4 3 2 5 6 6 7 7 8 9 11 14 14 21 20 21 21 22 23 25 28 27 27 29 29 31 36 37 43 40 37 32 43 40 40 38
5 1 1 3 2 3 4 5 5 6 10 11 12 12 20 18 19 20 22 23 25 26 24 25 25 26 30 30 36 40 37 31 41 37 41 44 43 40
8 2 3 4 2 4 4 5 7 8 9 10 10 19 19 17 19 21 21 24 23 26 27 28 27 28 30 33 34 35 39 38 39 41 41 43 41 42
4 5 5 4 4 4 6 7 8 9 9 13 18 16 15 19 21 21 21 22 24 24 28 30 32 33 30 25 25 34 37 43 44 43 42 40 41 40
6 5 6 5 5 5 7 7 8 9 12 13 14 14 21 20 21 20 22 22 23 26 27 30 30 27 14 15 28 29 41 44 46 41 37 39 44 48
7 7 7 5 5 7 7 7 9 13 14 15 16 19 18 18 20 21 21 22 25 27 29 28 26 26 25 22 34 42 35 43 40 44 44 44 49 56
12 10 8 6 7 7 7 9 12 14 16 17 15 16 17 20 21 20 22 25 27 26 27 28 31 35 38 37 28 37 42 39 38 44 49 42 40 47
8 7 7 7 6 6 9 11 12 13 14 15 17 18 19 18 19 23 24 25 26 27 30 32 34 33 32 31 31 38 42 50 49 45 43 45 41 19
11 9 7 5 6 8 9 9 10 14 16 17 18 18 17 19 21 22 24 25 27 28 29 33 32 32 33 33 35 36 41 45 44 46 50 51 50 53

GFSNE_925_spd_195.txt.gz
Wind_Speed
15 13 15 11 12 12 9 10 7 4 2 5 5 9 8 5 6 8 12 11 9 14 13 16 17 17 16 17 17 17 18 19 19 20 20 20 19 20
14 16 14 12 12 12 11 7 8 6 3 4 7 7 8 6 3 6 10 7 7 11 10 16 14 18 13 12 18 19 18 18 20 21 20 19 19 20
15 17 14 13 12 11 12 9 8 7 6 4 5 5 6 4 5 8 10 6 12 7 13 13 15 12 13 17 18 18 16 19 20 19 18 21 22 24
18 17 16 14 13 10 11 10 9 7 6 4 3 5 7 10 9 8 9 10 12 16 14 14 14 13 17 16 15 16 17 16 18 21 24 26 27 29
17 16 19 20 17 12 13 11 10 7 7 5 4 6 8 12 9 9 12 14 17 16 13 15 16 19 16 19 18 16 18 17 17 19 25 31 32 29
19 17 17 16 15 13 11 8 7 7 7 8 6 6 9 13 11 15 19 22 24 12 9 19 20 19 24 19 19 20 19 18 21 28 28 26 25 25
17 14 11 12 12 8 8 7 6 6 7 7 7 7 10 12 13 16 14 20 20 6 26 28 23 28 25 25 21 19 22 27 29 24 22 24 25 27
14 13 14 14 14 12 12 8 6 7 8 7 7 7 9 11 15 17 16 14 5 8 29 25 25 26 25 22 23 34 30 25 21 19 25 32 28 28
16 15 13 11 10 8 7 3 5 4 5 6 5 5 8 11 12 15 14 12 12 22 23 23 26 21 21 34 33 24 21 16 18 27 33 31 32 31
18 17 16 14 8 5 9 7 7 8 6 3 2 6 7 10 11 12 13 15 15 19 25 9 20 21 31 34 9 9 9 19 31 32 34 32 34 34
17 16 13 9 5 7 8 9 10 10 4 2 5 4 5 6 9 12 14 15 11 18 14 17 18 30 27 10 8 3 27 22 32 33 36 35 35 34
15 12 8 6 5 6 5 7 5 2 3 4 5 5 5 7 8 10 14 14 13 10 6 19 23 22 12 9 11 32 26 32 31 37 36 35 32 34
14 11 9 6 3 3 3 3 1 1 3 5 6 9 7 8 12 16 14 13 15 15 20 19 19 22 15 26 22 30 29 34 37 36 35 31 30 32
16 13 9 4 3 2 3 4 5 5 5 4 8 9 9 12 18 13 15 14 14 17 22 22 20 24 26 28 29 26 37 35 34 37 33 31 37 33
15 11 8 5 3 5 5 3 3 4 4 7 8 8 9 16 15 14 19 18 18 21 17 18 20 24 24 27 32 35 38 35 33 25 37 35 35 39
13 9 7 5 5 3 3 3 1 3 5 7 6 8 15 16 13 18 19 19 19 20 19 19 19 23 26 26 29 37 33 26 39 36 37 40 37 36
13 8 9 7 7 5 5 2 1 2 5 6 9 14 13 12 17 19 19 20 17 20 20 21 23 23 25 28 31 30 34 34 35 40 39 40 38 36
13 12 12 9 9 7 5 3 4 5 5 9 12 12 13 16 19 18 19 20 19 19 21 25 26 27 24 21 22 29 30 35 39 39 41 38 40 36
10 13 10 10 10 7 5 5 4 4 8 11 12 13 16 16 15 17 21 20 18 20 23 24 23 22 13 14 23 22 36 36 41 39 38 38 41 44
12 15 10 10 8 8 6 5 5 8 11 12 13 13 12 14 18 19 17 19 22 24 23 21 21 20 21 19 33 39 32 39 35 38 41 43 47 50
12 12 14 13 10 8 7 7 9 10 10 9 10 12 16 17 17 16 21 25 23 21 22 23 24 28 31 32 25 34 40 38 35 39 42 40 40 41
14 12 10 11 9 9 9 9 9 8 10 12 14 16 15 14 17 21 24 23 21 21 25 28 27 28 25 24 29 35 39 45 47 40 39 40 40 16
16 10 11 11 11 10 8 9 10 11 11 13 14 15 16 19 22 24 25 20 21 23 23 27 28 25 27 28 30 33 37 40 42 47 48 42 46 48